| time (UTC) | temp F | wind direction | speed MPH | gust MPH | rain 1hr in | rain 24hr in | rain mn in | humidity % | barometer mb |
| 20260905140654 | 81 | 175 | 2.0 | 6.0 | 0.00 | 0.00 | 0.00 | 86 | 1012.0 |
| 20260905135638 | 80 | 198 | 2.0 | 6.0 | 0.00 | 0.00 | 0.00 | 90 | 1011.8 |
| 20260905133531 | 78 | 181 | 1.0 | 5.0 | 0.00 | 0.00 | 0.00 | 92 | 1011.8 |
| 20260905132458 | 78 | 208 | 1.0 | 5.0 | 0.00 | 0.00 | 0.00 | 92 | 1011.7 |
| 20260905131507 | 78 | 173 | 1.0 | 4.0 | 0.00 | 0.00 | 0.00 | 93 | 1011.5 |
| 20260905130519 | 77 | 196 | 1.0 | 4.0 | 0.00 | 0.00 | 0.00 | 93 | 1011.4 |
| 20260905124436 | 77 | 153 | 1.0 | 4.0 | 0.00 | 0.00 | 0.00 | 94 | 1011.1 |
| 20260905123408 | 76 | 193 | 0.0 | 2.0 | 0.00 | 0.00 | 0.00 | 94 | 1011.1 |
| 20260905121301 | 76 | 196 | 0.0 | 0.0 | 0.00 | 0.00 | 0.00 | 93 | 1011.0 |
| 20260905120237 | 76 | 196 | 0.0 | 0.0 | 0.00 | 0.00 | 0.00 | 93 | 1011.0 |
| 20260905114027 | 76 | 205 | 1.0 | 3.0 | 0.00 | 0.00 | 0.00 | 93 | 1010.7 |
| 20260905113018 | 76 | 191 | 0.0 | 2.0 | 0.00 | 0.00 | 0.00 | 92 | 1010.7 |
| 20260905111949 | 76 | 191 | 0.0 | 2.0 | 0.00 | 0.00 | 0.00 | 92 | 1010.6 |
| 20260905110925 | 76 | 191 | 0.0 | 0.0 | 0.00 | 0.00 | 0.00 | 91 | 1010.6 |
| 20260905105906 | 76 | 191 | 0.0 | 2.0 | 0.00 | 0.00 | 0.00 | 91 | 1010.6 |
| 20260905104856 | 76 | 191 | 0.0 | 2.0 | 0.00 | 0.00 | 0.00 | 91 | 1010.5 |
| 20260905101702 | 77 | 167 | 1.0 | 4.0 | 0.00 | 0.00 | 0.00 | 91 | 1010.3 |
| 20260905095541 | 77 | 198 | 0.0 | 0.0 | 0.00 | 0.00 | 0.00 | 91 | 1010.4 |
| 20260905092253 | 77 | 171 | 2.0 | 7.0 | 0.00 | 0.00 | 0.00 | 90 | 1010.2 |
| 20260905090210 | 77 | 167 | 2.0 | 6.0 | 0.00 | 0.00 | 0.00 | 89 | 1010.3 |
| 20260905085227 | 78 | 165 | 2.0 | 6.0 | 0.00 | 0.00 | 0.00 | 89 | 1010.4 |
| 20260905083106 | 78 | 161 | 3.0 | 10.0 | 0.00 | 0.00 | 0.00 | 88 | 1010.4 |
| 20260905075828 | 78 | 170 | 2.0 | 6.0 | 0.00 | 0.00 | 0.00 | 87 | 1010.7 |
| 20260905073706 | 79 | 196 | 2.0 | 7.0 | 0.00 | 0.00 | 0.00 | 86 | 1010.7 |
| 20260905072637 | 79 | 193 | 3.0 | 7.0 | 0.00 | 0.00 | 0.00 | 85 | 1010.9 |
| 20260905071612 | 79 | 123 | 3.0 | 9.0 | 0.00 | 0.00 | 0.00 | 85 | 1010.9 |
| 20260905070543 | 79 | 109 | 3.0 | 9.0 | 0.00 | 0.00 | 0.00 | 85 | 1011.0 |
| 20260905065600 | 79 | 169 | 3.0 | 8.0 | 0.00 | 0.00 | 0.00 | 85 | 1011.0 |
| 20260905064603 | 79 | 179 | 3.0 | 10.0 | 0.00 | 0.00 | 0.00 | 84 | 1011.0 |
| 20260905063622 | 79 | 169 | 2.0 | 10.0 | 0.00 | 0.00 | 0.00 | 84 | 1011.1 |
| 20260905062632 | 79 | 172 | 3.0 | 7.0 | 0.00 | 0.00 | 0.00 | 83 | 1011.1 |
| 20260905061612 | 80 | 175 | 3.0 | 9.0 | 0.00 | 0.00 | 0.00 | 83 | 1011.0 |
| 20260905060608 | 80 | 166 | 3.0 | 9.0 | 0.00 | 0.00 | 0.00 | 82 | 1011.0 |
| 20260905055546 | 80 | 158 | 3.0 | 9.0 | 0.00 | 0.00 | 0.00 | 82 | 1011.0 |
| 20260905054603 | 80 | 142 | 3.0 | 8.0 | 0.00 | 0.00 | 0.00 | 81 | 1011.0 |
| 20260905052447 | 80 | 184 | 3.0 | 6.0 | 0.00 | 0.00 | 0.00 | 80 | 1011.0 |
| 20260905051431 | 80 | 141 | 2.0 | 6.0 | 0.00 | 0.00 | 0.00 | 79 | 1011.1 |
| 20260905050443 | 81 | 139 | 2.0 | 6.0 | 0.00 | 0.00 | 0.00 | 79 | 1011.2 |
| 20260905044322 | 81 | 167 | 3.0 | 9.0 | 0.00 | 0.00 | 0.00 | 78 | 1011.2 |
| 20260905043322 | 81 | 169 | 3.0 | 9.0 | 0.00 | 0.00 | 0.00 | 77 | 1011.2 |
| 20260905042250 | 81 | 155 | 2.0 | 8.0 | 0.00 | 0.00 | 0.00 | 77 | 1011.1 |
| 20260905041250 | 81 | 159 | 2.0 | 7.0 | 0.00 | 0.00 | 0.00 | 76 | 1011.1 |
| 20260905035120 | 81 | 169 | 2.0 | 7.0 | 0.00 | 0.00 | 0.00 | 74 | 1011.1 |
| 20260905034127 | 82 | 175 | 1.0 | 6.0 | 0.00 | 0.00 | 0.00 | 73 | 1011.1 |
| 20260905033058 | 82 | 187 | 2.0 | 7.0 | 0.00 | 0.00 | 0.00 | 73 | 1011.0 |
| 20260905032024 | 82 | 150 | 2.0 | 7.0 | 0.00 | 0.00 | 0.00 | 72 | 1011.1 |
| 20260905031000 | 82 | 198 | 1.0 | 7.0 | 0.00 | 0.00 | 0.00 | 71 | 1010.9 |
| 20260905025928 | 82 | 107 | 1.0 | 6.0 | 0.00 | 0.00 | 0.00 | 70 | 1010.9 |
| 20260905023757 | 83 | 131 | 1.0 | 5.0 | 0.00 | 0.00 | 0.00 | 69 | 1010.5 |
| 20260905022731 | 83 | 121 | 1.0 | 4.0 | 0.00 | 0.00 | 0.00 | 68 | 1010.5 |
| 20260905021706 | 83 | 140 | 1.0 | 4.0 | 0.00 | 0.00 | 0.00 | 68 | 1010.4 |
| 20260905020731 | 84 | 127 | 1.0 | 4.0 | 0.00 | 0.00 | 0.00 | 67 | 1010.3 |
| 20260905015735 | 84 | 143 | 1.0 | 8.0 | 0.00 | 0.00 | 0.00 | 67 | 1010.3 |
| 20260905014754 | 84 | 154 | 2.0 | 8.0 | 0.00 | 0.00 | 0.00 | 66 | 1010.2 |
| 20260905013744 | 85 | 144 | 2.0 | 6.0 | 0.00 | 0.00 | 0.00 | 65 | 1010.1 |
| 20260905012730 | 85 | 107 | 2.0 | 7.0 | 0.00 | 0.00 | 0.00 | 65 | 1010.1 |
| 20260905010557 | 86 | 110 | 4.0 | 9.0 | 0.00 | 0.00 | 0.00 | 63 | 1009.9 |
| 20260905005531 | 87 | 149 | 3.0 | 9.0 | 0.00 | 0.00 | 0.00 | 62 | 1009.8 |
| 20260905003359 | 88 | 182 | 4.0 | 13.0 | 0.00 | 0.00 | 0.00 | 60 | 1009.7 |
| 20260905002326 | 89 | 111 | 5.0 | 13.0 | 0.00 | 0.00 | 0.00 | 59 | 1009.6 |
| 20260905001304 | 90 | 119 | 4.0 | 11.0 | 0.00 | 0.00 | 0.00 | 57 | 1009.4 |
| 20260905000241 | 91 | 173 | 4.0 | 11.0 | 0.00 | 0.00 | 0.00 | 53 | 1009.2 |
| 20260904235247 | 92 | 138 | 3.0 | 9.0 | 0.00 | 0.00 | 0.00 | 50 | 1009.1 |
| 20260904233030 | 93 | 153 | 3.0 | 10.0 | 0.00 | 0.00 | 0.00 | 45 | 1008.9 |
| 20260904232006 | 93 | 213 | 3.0 | 11.0 | 0.00 | 0.00 | 0.00 | 43 | 1009.1 |
| 20260904230931 | 93 | 181 | 4.0 | 11.0 | 0.00 | 0.00 | 0.00 | 43 | 1009.1 |
| 20260904225916 | 94 | 180 | 4.0 | 10.0 | 0.00 | 0.00 | 0.00 | 45 | 1009.3 |
| 20260904223752 | 93 | 229 | 3.0 | 11.0 | 0.00 | 0.00 | 0.00 | 49 | 1009.3 |
| 20260904222732 | 93 | 190 | 4.0 | 11.0 | 0.00 | 0.00 | 0.00 | 48 | 1009.4 |
| 20260904221730 | 93 | 115 | 4.0 | 13.0 | 0.00 | 0.00 | 0.00 | 47 | 1009.4 |
| 20260904220658 | 94 | 170 | 4.0 | 13.0 | 0.00 | 0.00 | 0.00 | 51 | 1009.5 |
| 20260904215633 | 93 | 136 | 5.0 | 11.0 | 0.00 | 0.00 | 0.00 | 53 | 1009.4 |
| 20260904214641 | 94 | 128 | 4.0 | 11.0 | 0.00 | 0.00 | 0.00 | 49 | 1009.5 |
| 20260904212544 | 94 | 133 | 4.0 | 13.0 | 0.00 | 0.00 | 0.00 | 48 | 1009.8 |
| 20260904211543 | 94 | 221 | 5.0 | 13.0 | 0.00 | 0.00 | 0.00 | 48 | 1009.8 |
| 20260904210520 | 92 | 202 | 5.0 | 12.0 | 0.00 | 0.00 | 0.00 | 52 | 1010.0 |
| 20260904203250 | 92 | 191 | 2.0 | 11.0 | 0.00 | 0.00 | 0.00 | 56 | 1010.3 |
| 20260904202259 | 92 | 205 | 3.0 | 11.0 | 0.00 | 0.00 | 0.00 | 56 | 1010.4 |
| 20260904201304 | 92 | 169 | 3.0 | 11.0 | 0.00 | 0.00 | 0.00 | 58 | 1010.5 |
| 20260904200300 | 90 | 171 | 2.0 | 8.0 | 0.00 | 0.00 | 0.00 | 60 | 1010.6 |
| 20260904195323 | 90 | 173 | 2.0 | 7.0 | 0.00 | 0.00 | 0.00 | 61 | 1010.8 |
| 20260904185804 | 88 | 126 | 3.0 | 10.0 | 0.00 | 0.00 | 0.00 | 67 | 1011.3 |
| 20260904184759 | 87 | 123 | 3.0 | 10.0 | 0.00 | 0.00 | 0.00 | 67 | 1011.4 |
| 20260904183821 | 87 | 121 | 2.0 | 8.0 | 0.00 | 0.00 | 0.00 | 69 | 1011.6 |
| 20260904182846 | 87 | 152 | 4.0 | 8.0 | 0.00 | 0.00 | 0.00 | 69 | 1011.7 |
| 20260904181849 | 87 | 153 | 3.0 | 9.0 | 0.00 | 0.00 | 0.00 | 68 | 1011.7 |
| 20260904180823 | 87 | 201 | 3.0 | 9.0 | 0.00 | 0.00 | 0.00 | 70 | 1011.8 |
| 20260904175801 | 87 | 199 | 2.0 | 7.0 | 0.00 | 0.00 | 0.00 | 69 | 1011.8 |
| 20260904174803 | 87 | 205 | 3.0 | 8.0 | 0.00 | 0.00 | 0.00 | 69 | 1012.0 |
| 20260904173820 | 86 | 144 | 2.0 | 11.0 | 0.00 | 0.00 | 0.00 | 71 | 1012.1 |
| 20260904172841 | 86 | 178 | 3.0 | 13.0 | 0.00 | 0.00 | 0.00 | 70 | 1012.1 |
| 20260904171904 | 86 | 179 | 3.0 | 13.0 | 0.00 | 0.00 | 0.00 | 71 | 1012.1 |
| 20260904170907 | 86 | 160 | 3.0 | 7.0 | 0.00 | 0.00 | 0.00 | 73 | 1012.2 |
| 20260904164716 | 84 | 212 | 3.0 | 10.0 | 0.00 | 0.00 | 0.00 | 75 | 1012.0 |
| 20260904163720 | 84 | 199 | 2.0 | 10.0 | 0.00 | 0.00 | 0.00 | 76 | 1011.9 |
| 20260904162701 | 83 | 196 | 2.0 | 10.0 | 0.00 | 0.00 | 0.00 | 78 | 1011.8 |
| 20260904161639 | 83 | 221 | 2.0 | 7.0 | 0.00 | 0.00 | 0.00 | 79 | 1011.9 |
| 20260904160655 | 82 | 185 | 2.0 | 8.0 | 0.00 | 0.00 | 0.00 | 80 | 1011.9 |
| 20260904155646 | 82 | 169 | 2.0 | 11.0 | 0.00 | 0.00 | 0.00 | 80 | 1011.9 |
| 20260904154703 | 82 | 227 | 2.0 | 11.0 | 0.00 | 0.00 | 0.00 | 80 | 1011.9 |
| 20260904153655 | 82 | 195 | 2.0 | 9.0 | 0.00 | 0.00 | 0.00 | 81 | 1012.0 |
| 20260904152710 | 82 | 174 | 3.0 | 9.0 | 0.00 | 0.00 | 0.00 | 82 | 1012.0 |
| 20260904151641 | 82 | 186 | 1.0 | 6.0 | 0.00 | 0.00 | 0.00 | 83 | 1011.9 |
| 20260904150641 | 82 | 194 | 1.0 | 6.0 | 0.00 | 0.00 | 0.00 | 83 | 1012.1 |
| 20260904145651 | 82 | 204 | 1.0 | 4.0 | 0.00 | 0.00 | 0.00 | 84 | 1012.1 |
| 20260904144619 | 81 | 213 | 0.0 | 3.0 | 0.00 | 0.00 | 0.00 | 86 | 1012.2 |
| 20260904143618 | 81 | 175 | 2.0 | 9.0 | 0.00 | 0.00 | 0.00 | 86 | 1012.1 |
| 20260904142643 | 80 | 153 | 2.0 | 9.0 | 0.00 | 0.00 | 0.00 | 87 | 1011.9 |